This is the latest recevied weather packets stored in our database for station/object WB4MOZ-3. If no packets are shown the sender has not sent any weather packets the latest 10 day(s).
| Time | Temp. | Humidity | Pressure | Rain* | Wind** | Luminosity | Snow |
|---|---|---|---|---|---|---|---|
| 1778171080 | 35° C | 47% | 1014.5 hPa | 0 mm | - | - | - |
| 1778170779 | 35° C | 46% | 1014.6 hPa | 0 mm | - | - | - |
| 1778170179 | 35° C | 48% | 1014.7 hPa | 0 mm | - | - | - |
| 1778169579 | 35° C | 47% | 1014.8 hPa | 0 mm | - | - | - |
| 1778169279 | 35° C | 50% | 1014.9 hPa | 0 mm | - | - | - |
| 1778168980 | 34.44° C | 50% | 1014.9 hPa | 0 mm | - | - | - |
| 1778168379 | 35° C | 49% | 1015 hPa | 0 mm | - | - | - |
| 1778167780 | 35° C | 49% | 1015.2 hPa | 0 mm | - | - | - |
| 1778167179 | 34.44° C | 52% | 1015.2 hPa | 0 mm | - | - | - |
| 1778166879 | 33.89° C | 54% | 1015.2 hPa | 0 mm | - | - | - |
| 1778166579 | 33.89° C | 54% | 1015.1 hPa | 0 mm | - | - | - |
| 1778166280 | 33.89° C | 52% | 1015.3 hPa | 0 mm | - | - | - |
| 1778165981 | 33.89° C | 53% | 1015.2 hPa | 0 mm | - | - | - |
| 1778165679 | 33.33° C | 55% | 1015.3 hPa | 0 mm | - | - | - |
| 1778165379 | 32.78° C | 55% | 1015.3 hPa | 0 mm | - | - | - |
| 1778164780 | 33.33° C | 56% | 1015.2 hPa | 0 mm | - | - | - |
| 1778164179 | 32.78° C | 57% | 1015.3 hPa | 0 mm | - | - | - |
| 1778163879 | 32.78° C | 59% | 1015.3 hPa | 0 mm | - | - | - |
| 1778163580 | 32.22° C | 58% | 1015.3 hPa | 0 mm | - | - | - |
| 1778163279 | 32.22° C | 58% | 1015.3 hPa | 0 mm | - | - | - |
| 1778162979 | 32.22° C | 58% | 1015.4 hPa | 0 mm | - | - | - |
| 1778162679 | 32.22° C | 60% | 1015.4 hPa | 0 mm | - | - | - |
| 1778162079 | 31.67° C | 62% | 1015.4 hPa | 0 mm | - | - | - |
| 1778161779 | 31.67° C | 62% | 1015.4 hPa | 0 mm | - | - | - |
| 1778161479 | 31.11° C | 65% | 1015.4 hPa | 0 mm | - | - | - |
* Rain latest hour (hover to see other rain measurements)
** Current wind speed in m/s (hover to see current wind gust speed)